Back to catalog

QIANFAN-218

AliveCommunicationsPO
NORAD 69817·PAYLOAD·🇨🇳 China

Launched Jul 4, 2026 from Taiyuan Satellite Launch Center

Loading…

Next Passes (next 24 hours)

TLE

FreshSource: Space-Track

Epoch: Sep 14, 2026, 13:02 UTC

1 69817U 26153T   26257.54316897 -.01874719  00000-0 -97578+0 0  9997
2 69817  88.9975 351.9771 0003306 344.5903  15.5185 14.18466329 10293

Track QIANFAN-218 in real time with AllMySat

Download on the App Store